Location: Crocus Hill
(18.2167°N, 63.0667°W)
Time: 15:23:13
(UTC+00:00)

Cosmos 1300 - Pass Details

Date: 26 January 2020
Orbit: 511 x 515 km, 82.5° (Epoch: 25 February)

Event Time Altitude Azimuth Distance (km) Brightness Sun altitude
Rises 09:35:17 0° 170° (S) 2,616 6.6 -17.0°
Reaches altitude 10° 09:37:29 10° 162° (SSE) 1,732 5.8 -16.5°
Maximum altitude 09:41:03 39° 93° (E) 779 4.2 -15.7°
Drops below altitude 10° 09:44:37 10° 23° (NNE) 1,736 5.5 -14.9°
Sets 09:46:50 0° 16° (NNE) 2,623 6.3 -14.4°
